Change the Weather History Date:

Saturday, December 1, 2012

  Actual Average Record
Temperature  
Mean Temperature 77 °F -  
Max Temperature 83 °F - - ()
Min Temperature 71 °F 69 °F - ()
Cooling Degree Days 12    
Growing Degree Days 27 (Base 50)    
Moisture  
Dew Point 72 °F    
Average Humidity 82    
Maximum Humidity 100    
Minimum Humidity 62    
Precipitation  
Precipitation 0.00 in 0.23 in - ()
Sea Level Pressure  
Sea Level Pressure 30.04 in    
Wind  
Wind Speed 4 mph ()    
Max Wind Speed 9 mph    
Max Gust Speed -    
Visibility 8.1 miles    
Events Fog , Rain    
T = Trace of Precipitation, MM = Missing Value Source: Averaged Metar Reports

Daily Weather History Graph

Daily Weather History Graph

Search for Another Location

Airport or City:

Trip Planner

Search our weather history database for the weather conditions in past years. The results will help you decide how hot, cold, wet, or windy it might be!

Date:

Astronomy

Dec. 01, 2012 Rise Set
Actual Time 6:07 AM CST 5:17 PM CST
Civil Twilight 5:44 AM CST 5:40 PM CST
Nautical Twilight 5:17 AM CST 6:07 PM CST
Astronomical Twilight 4:51 AM CST 6:33 PM CST
Moon 7:59 PM CST (12/1) 8:25 AM CST (12/1)
Length of Visible Light 11h 56m
Length of Day
11h 09m
Waning Gibbous, 91% of the Moon is Illuminated
Dec 1
Waning Gibbous
Dec 6
Last Quarter
Dec 13
New
Dec 19
First Quarter
Dec 28
Full

Hourly Weather History & Observations

Time (CST) Temp. Heat Index Dew Point Humidity Pressure Visibility Wind Dir Wind Speed Gust Speed Precip Events Conditions
12:00 AM 72 °F - 71 °F 95% 30.05 in 9 mi Calm Calm - - Rain Light Rain Showers
3:00 AM 72 °F - 72 °F 100% 30.02 in 12 mi Calm Calm - -   Partly Cloudy
5:00 AM 71.6 °F - 71.6 °F 100% 30.01 in 6.2 mi NW 3.5 mph - N/A   Mostly Cloudy
6:00 AM 72 °F - 71 °F 97% 30.05 in 12 mi NW 5.8 mph - -   Partly Cloudy
6:00 AM 73.4 °F - 71.6 °F 94% 30.04 in 6.2 mi NW 5.8 mph - N/A   Mostly Cloudy
7:00 AM 73.4 °F - 71.6 °F 94% 30.06 in 3.7 mi NW 5.8 mph - N/A Fog Fog
8:00 AM 75.2 °F - 73.4 °F 94% 30.06 in 6.2 mi NNW 6.9 mph - N/A   Mostly Cloudy
9:00 AM 76 °F - 73 °F 86% 30.10 in 12 mi NNW 5.8 mph - -   Mostly Cloudy
9:00 AM 77.0 °F - 73.4 °F 89% 30.09 in 6.2 mi NNW 5.8 mph - N/A   Mostly Cloudy
10:00 AM 80.6 °F 85.4 °F 73.4 °F 79% 30.08 in 6.2 mi North 8.1 mph - N/A   Scattered Clouds
11:00 AM 82.4 °F 88.2 °F 73.4 °F 74% 30.08 in 6.2 mi ENE 9.2 mph - N/A   Scattered Clouds
12:00 PM 83 °F - 72 °F 62% 30.06 in 12 mi NE 8.1 mph - -   Partly Cloudy
12:00 PM 82.4 °F 87.2 °F 71.6 °F 70% 30.05 in 6.2 mi NE 8.1 mph - N/A   Scattered Clouds
1:00 PM 82.4 °F 87.2 °F 71.6 °F 70% 30.03 in 6.2 mi NE 9.2 mph - N/A   Partly Cloudy
2:00 PM 82.4 °F 87.2 °F 71.6 °F 70% 30.01 in 6.2 mi NE 9.2 mph - N/A   Scattered Clouds
3:00 PM 81 °F - 72 °F 68% 30.01 in 12 mi NE 6.9 mph - -   Mostly Cloudy
3:00 PM 80.6 °F 85.4 °F 73.4 °F 79% 30.00 in 6.2 mi NE 6.9 mph - N/A   Mostly Cloudy
4:00 PM 80.6 °F 86.2 °F 75.2 °F 84% 30.00 in 6.2 mi East 5.8 mph - N/A   Mostly Cloudy
5:00 PM 80.6 °F 84.6 °F 71.6 °F 74% 30.01 in 6.2 mi East 5.8 mph - N/A   Mostly Cloudy
6:00 PM 79 °F - 72 °F 75% 30.02 in 12 mi East 5.8 mph - -   Mostly Cloudy
6:00 PM 78.8 °F - 71.6 °F 78% 30.01 in 6.2 mi East 5.8 mph - N/A   Mostly Cloudy
9:00 PM 77 °F - 72 °F 81% 30.06 in 12 mi Calm Calm - -   Mostly Cloudy